1546394400.74,18601,0.0,0.0,-11.67,-12.39,-12.35,0,*63
1546394401.98,18602,0.0,0.0,-11.67,-12.47,-12.39,0,*65
1546394403.22,18603,0.0,0.0,-11.67,-12.39,-12.39,0,*6D
1546394404.46,18604,0.0,0.0,-11.67,-12.39,-12.39,0,*6A
1546394405.7,18605,0.0,0.0,-11.67,-12.47,-12.39,0,*62
1546394406.94,18606,0.0,0.0,-11.67,-12.39,-12.39,0,*68
1546394408.21,18607,0.0,0.0,-11.67,-12.47,-12.35,0,*6C
1546394409.45,18608,0.0,0.0,-11.67,-12.39,-12.39,0,*66
1546394410.69,18609,0.0,0.0,-11.65,-12.39,-12.35,0,*69
1546394411.94,18610,0.0,0.0,-11.67,-12.47,-12.39,0,*66
1546394413.18,18611,0.0,0.0,-11.67,-12.39,-12.39,0,*6E
1546394414.42,18612,0.0,0.0,-11.65,-12.39,-12.35,0,*63
1546394415.66,18613,0.0,0.0,-11.67,-12.39,-12.39,0,*6C
1546394416.87,18614,0.0,0.0,-11.65,-12.39,-12.39,0,*69
1546394418.12,18615,0.0,0.0,-11.67,-12.39,-12.39,0,*6A
1546394419.39,18616,0.0,0.0,-11.67,-12.47,-12.35,0,*6C
1546394420.65,18617,0.0,0.0,-11.67,-12.39,-12.35,0,*64
1546394421.9,18618,0.0,0.0,-11.69,-12.53,-12.39,0,*65
1546394423.14,18619,0.0,0.0,-11.67,-12.39,-12.39,0,*66
1546394424.41,18620,0.0,0.0,-11.65,-12.35,-12.35,0,*6E
1546394425.65,18621,0.0,0.0,-11.67,-12.47,-12.39,0,*64
1546394426.93,18622,0.0,0.0,-11.67,-12.47,-12.35,0,*6B
1546394428.17,18623,0.0,0.0,-11.67,-12.39,-12.39,0,*6F
1546394429.43,18624,0.0,0.0,-11.67,-12.39,-12.35,0,*64
1546394430.65,18625,0.0,0.0,-11.69,-12.43,-12.43,0,*67
1546394431.92,18626,0.0,0.0,-11.67,-12.35,-12.39,0,*66
1546394433.18,18627,0.0,0.0,-11.67,-12.39,-12.35,0,*67
1546394434.45,18628,0.0,0.0,-11.67,-12.35,-12.39,0,*68
1546394435.69,18629,0.0,0.0,-11.67,-12.47,-12.39,0,*6C
1546394436.94,18630,0.0,0.0,-11.67,-12.39,-12.39,0,*6D
1546394438.21,18631,0.0,0.0,-11.67,-12.47,-12.35,0,*69
1546394439.45,18632,0.0,0.0,-11.67,-12.47,-12.39,0,*66
1546394440.72,18633,0.0,0.0,-11.67,-12.39,-12.35,0,*62
1546394441.96,18634,0.0,0.0,-11.67,-12.39,-12.39,0,*69
1546394443.2,18635,0.0,0.0,-11.67,-12.47,-12.39,0,*61
1546394444.41,18636,0.0,0.0,-11.69,-12.39,-12.39,0,*65
1546394445.65,18637,0.0,0.0,-11.67,-12.39,-12.39,0,*6A
1546394446.92,18638,0.0,0.0,-11.67,-12.47,-12.35,0,*60
1546394448.14,18639,0.0,0.0,-11.69,-12.43,-12.43,0,*6A
1546394449.36,18640,0.0,0.0,-11.69,-12.43,-12.39,0,*69
1546394450.57,18641,0.0,0.0,-11.69,-12.43,-12.43,0,*65
1546394451.79,18642,0.0,0.0,-11.69,-12.39,-12.39,0,*66
1546394453.0,18643,0.0,0.0,-11.69,-12.43,-12.43,0,*67
1546394454.22,18644,0.0,0.0,-11.69,-12.43,-12.43,0,*60
1546394455.47,18645,0.0,0.0,-11.69,-12.53,-12.43,0,*60
1546394456.68,18646,0.0,0.0,-11.69,-12.43,-12.43,0,*62
1546394457.9,18647,0.0,0.0,-11.69,-12.43,-12.43,0,*63
1546394459.14,18648,0.0,0.0,-11.71,-12.43,-12.43,0,*65
1546394460.36,18649,0.0,0.0,-11.69,-12.43,-12.39,0,*60
1546394461.57,18650,0.0,0.0,-11.69,-12.39,-12.39,0,*65
1546394462.79,18651,0.0,0.0,-11.69,-12.43,-12.43,0,*64
1546394464.0,18652,0.0,0.0,-11.69,-12.43,-12.43,0,*67
1546394465.22,18653,0.0,0.0,-11.69,-12.43,-12.43,0,*66
1546394466.44,18654,0.0,0.0,-11.69,-12.39,-12.39,0,*61
1546394467.65,18655,0.0,0.0,-11.69,-12.39,-12.43,0,*6D
1546394468.87,18656,0.0,0.0,-11.69,-12.43,-12.43,0,*63
1546394470.11,18657,0.0,0.0,-11.69,-12.53,-12.43,0,*63
1546394471.33,18658,0.0,0.0,-11.69,-12.43,-12.43,0,*6D
1546394472.54,18659,0.0,0.0,-11.69,-12.43,-12.43,0,*6C
1546394473.82,18660,0.0,0.0,-11.71,-12.53,-12.43,0,*6E
1546394475.04,18661,0.0,0.0,-11.69,-12.43,-12.43,0,*67
1546394476.25,18662,0.0,0.0,-11.69,-12.43,-12.43,0,*64
1546394477.47,18663,0.0,0.0,-11.69,-12.43,-12.43,0,*65
1546394478.68,18664,0.0,0.0,-11.69,-12.39,-12.43,0,*6F
1546394479.9,18665,0.0,0.0,-11.69,-12.39,-12.39,0,*63
1546394481.11,18666,0.0,0.0,-11.69,-12.39,-12.43,0,*6D
1546394482.33,18667,0.0,0.0,-11.69,-12.39,-12.43,0,*6C
1546394483.55,18668,0.0,0.0,-11.69,-12.39,-12.39,0,*6E
1546394484.79,18669,0.0,0.0,-11.69,-12.53,-12.43,0,*6E
1546394486.04,18670,0.0,0.0,-11.69,-12.53,-12.43,0,*66
1546394487.28,18671,0.0,0.0,-11.69,-12.53,-12.43,0,*67
1546394488.5,18672,0.0,0.0,-11.69,-12.43,-12.39,0,*68
1546394489.72,18673,0.0,0.0,-11.69,-12.43,-12.43,0,*64
1546394490.93,18674,0.0,0.0,-11.69,-12.43,-12.43,0,*63
1546394492.21,18675,0.0,0.0,-11.71,-12.53,-12.43,0,*6A
1546394493.42,18676,0.0,0.0,-11.69,-12.43,-12.39,0,*6C
1546394494.64,18677,0.0,0.0,-11.69,-12.43,-12.39,0,*6D
1546394495.86,18678,0.0,0.0,-11.69,-12.43,-12.39,0,*62
1546394497.13,18679,0.0,0.0,-11.71,-12.53,-12.43,0,*66
1546394498.35,18680,0.0,0.0,-11.69,-12.43,-12.43,0,*68
1546394499.56,18681,0.0,0.0,-11.69,-12.39,-12.43,0,*64
1546394500.78,18682,0.0,0.0,-11.69,-12.43,-12.43,0,*6A
1546394502.06,18683,0.0,0.0,-11.71,-12.53,-12.39,0,*6E
1546394503.27,18684,0.0,0.0,-11.69,-12.43,-12.39,0,*61
1546394504.49,18685,0.0,0.0,-11.69,-12.43,-12.39,0,*60
1546394505.7,18686,0.0,0.0,-11.69,-12.43,-12.43,0,*6E
1546394506.92,18687,0.0,0.0,-11.69,-12.43,-12.43,0,*6F
1546394508.16,18688,0.0,0.0,-11.71,-12.39,-12.43,0,*64
1546394509.38,18689,0.0,0.0,-11.69,-12.39,-12.43,0,*6C
1546394510.66,18690,0.0,0.0,-11.71,-12.53,-12.43,0,*61
1546394511.87,18691,0.0,0.0,-11.69,-12.43,-12.43,0,*68
1546394513.12,18692,0.0,0.0,-11.71,-12.43,-12.43,0,*62
1546394514.33,18693,0.0,0.0,-11.69,-12.43,-12.43,0,*6A
1546394515.58,18694,0.0,0.0,-11.69,-12.53,-12.39,0,*61
1546394516.82,18695,0.0,0.0,-11.69,-12.53,-12.43,0,*6D
1546394518.07,18696,0.0,0.0,-11.71,-12.43,-12.43,0,*66
1546394519.32,18697,0.0,0.0,-11.69,-12.53,-12.43,0,*6F
1546394520.53,18698,0.0,0.0,-11.69,-12.43,-12.43,0,*61
1546394521.75,18699,0.0,0.0,-11.69,-12.43,-12.43,0,*60
1546394522.96,18700,0.0,0.0,-11.69,-12.43,-12.43,0,*61
1546394524.18,18701,0.0,0.0,-11.69,-12.43,-12.43,0,*60
1546394525.39,18702,0.0,0.0,-11.69,-12.43,-12.43,0,*63
1546394526.61,18703,0.0,0.0,-11.69,-12.43,-12.43,0,*62
1546394527.85,18704,0.0,0.0,-11.71,-12.43,-12.43,0,*6C
1546394529.07,18705,0.0,0.0,-11.69,-12.43,-12.43,0,*64
1546394530.35,18706,0.0,0.0,-11.71,-12.53,-12.39,0,*62
1546394531.59,18707,0.0,0.0,-11.69,-12.53,-12.39,0,*6A
1546394532.84,18708,0.0,0.0,-11.69,-12.53,-12.39,0,*65
1546394534.08,18709,0.0,0.0,-11.69,-12.53,-12.43,0,*69
1546394535.36,18710,0.0,0.0,-11.71,-12.57,-12.43,0,*6C
1546394536.57,18711,0.0,0.0,-11.69,-12.43,-12.43,0,*61
1546394537.82,18712,0.0,0.0,-11.69,-12.53,-12.43,0,*63
1546394539.06,18713,0.0,0.0,-11.71,-12.43,-12.43,0,*6A
1546394540.31,18714,0.0,0.0,-11.69,-12.53,-12.43,0,*65
1546394541.53,18715,0.0,0.0,-11.69,-12.43,-12.43,0,*65
1546394542.77,18716,0.0,0.0,-11.71,-12.43,-12.39,0,*62
1546394543.99,18717,0.0,0.0,-11.69,-12.43,-12.43,0,*67
1546394545.2,18718,0.0,0.0,-11.69,-12.43,-12.39,0,*65
1546394546.45,18719,0.0,0.0,-11.69,-12.53,-12.43,0,*68
1546394547.66,18720,0.0,0.0,-11.69,-12.43,-12.43,0,*63
1546394548.91,18721,0.0,0.0,-11.71,-12.43,-12.39,0,*66
1546394550.18,18722,0.0,0.0,-11.71,-12.39,-12.53,0,*64
1546394551.4,18723,0.0,0.0,-11.69,-12.43,-12.43,0,*60
1546394552.64,18724,0.0,0.0,-11.71,-12.43,-12.39,0,*63
1546394553.86,18725,0.0,0.0,-11.69,-12.43,-12.43,0,*66
1546394555.07,18726,0.0,0.0,-11.69,-12.39,-12.43,0,*68
1546394556.29,18727,0.0,0.0,-11.69,-12.43,-12.39,0,*69
1546394557.57,18728,0.0,0.0,-11.71,-12.53,-12.43,0,*63
1546394558.84,18729,0.0,0.0,-11.71,-12.53,-12.43,0,*62
1546394560.09,18730,0.0,0.0,-11.71,-12.43,-12.43,0,*6B
1546394561.3,18731,0.0,0.0,-11.69,-12.43,-12.43,0,*63
1546394562.55,18732,0.0,0.0,-11.71,-12.43,-12.43,0,*69
1546394563.79,18733,0.0,0.0,-11.71,-12.43,-12.43,0,*68
1546394565.07,18734,0.0,0.0,-11.71,-12.53,-12.43,0,*6E
1546394566.34,18735,0.0,0.0,-11.71,-12.43,-12.53,0,*6F
1546394567.59,18736,0.0,0.0,-11.71,-12.43,-12.43,0,*6D
1546394568.83,18737,0.0,0.0,-11.71,-12.43,-12.43,0,*6C
1546394570.11,18738,0.0,0.0,-11.71,-12.53,-12.43,0,*62
1546394571.38,18739,0.0,0.0,-11.71,-12.57,-12.43,0,*67
1546394572.6,18740,0.0,0.0,-11.69,-12.43,-12.43,0,*65
1546394573.87,18741,0.0,0.0,-11.71,-12.53,-12.43,0,*6C
1546394575.12,18742,0.0,0.0,-11.71,-12.43,-12.39,0,*63
1546394576.36,18743,0.0,0.0,-11.71,-12.43,-12.43,0,*6F
1546394577.61,18744,0.0,0.0,-11.71,-12.43,-12.39,0,*65
1546394578.85,18745,0.0,0.0,-11.71,-12.43,-12.43,0,*69
1546394580.1,18746,0.0,0.0,-11.71,-12.43,-12.43,0,*6A
1546394581.34,18747,0.0,0.0,-11.71,-12.43,-12.39,0,*66
1546394582.59,18748,0.0,0.0,-11.71,-12.43,-12.43,0,*64
1546394583.83,18749,0.0,0.0,-11.71,-12.43,-12.39,0,*68
1546394585.11,18750,0.0,0.0,-11.71,-12.53,-12.43,0,*6C
1546394586.39,18751,0.0,0.0,-11.71,-12.53,-12.39,0,*60
1546394587.63,18752,0.0,0.0,-11.71,-12.43,-12.43,0,*6F
1546394588.88,18753,0.0,0.0,-11.71,-12.43,-12.39,0,*63
1546394590.12,18754,0.0,0.0,-11.73,-12.47,-12.47,0,*6B
1546394591.36,18755,0.0,0.0,-11.71,-12.43,-12.43,0,*68
1546394592.64,18756,0.0,0.0,-11.71,-12.53,-12.39,0,*67
1546394593.88,18757,0.0,0.0,-11.71,-12.43,-12.39,0,*67
1546394595.13,18758,0.0,0.0,-11.71,-12.43,-12.43,0,*65
1546394596.37,18759,0.0,0.0,-11.73,-12.47,-12.43,0,*62
1546394597.61,18760,0.0,0.0,-11.71,-12.43,-12.43,0,*6E
1546394598.86,18761,0.0,0.0,-11.71,-12.39,-12.39,0,*6F
1546394600.12,18762,0.0,0.0,-11.73,-12.57,-12.43,0,*6B
1546394601.37,18763,0.0,0.0,-11.71,-12.43,-12.39,0,*60
1546394602.61,18764,0.0,0.0,-11.71,-12.43,-12.43,0,*6A
1546394603.86,18765,0.0,0.0,-11.71,-12.43,-12.43,0,*6B
1546394605.1,18766,0.0,0.0,-11.71,-12.43,-12.39,0,*65
1546394606.32,18767,0.0,0.0,-11.69,-12.43,-12.39,0,*6D
1546394607.57,18768,0.0,0.0,-11.71,-12.43,-12.43,0,*66
1546394608.78,18769,0.0,0.0,-11.69,-12.43,-12.43,0,*6E
1546394610.06,18770,0.0,0.0,-11.71,-12.53,-12.43,0,*6E
1546394611.3,18771,0.0,0.0,-11.71,-12.43,-12.43,0,*6E
1546394612.54,18772,0.0,0.0,-11.69,-12.43,-12.53,0,*65
1546394613.82,18773,0.0,0.0,-11.71,-12.43,-12.53,0,*6D
1546394615.06,18774,0.0,0.0,-11.73,-12.47,-12.47,0,*69
1546394616.3,18775,0.0,0.0,-11.73,-12.47,-12.43,0,*6C
1546394617.54,18776,0.0,0.0,-11.73,-12.47,-12.43,0,*6F
1546394618.77,18777,0.0,0.0,-11.73,-12.47,-12.47,0,*6A
1546394620.02,18778,0.0,0.0,-11.73,-12.47,-12.47,0,*65
1546394621.25,18779,0.0,0.0,-11.73,-12.47,-12.47,0,*64
1546394622.5,18780,0.0,0.0,-11.73,-12.47,-12.43,0,*66
1546394623.73,18781,0.0,0.0,-11.73,-12.43,-12.47,0,*67
1546394625.0,18782,0.0,0.0,-11.73,-12.57,-12.47,0,*61
1546394626.24,18783,0.0,0.0,-11.73,-12.47,-12.47,0,*61
1546394627.48,18784,0.0,0.0,-11.73,-12.47,-12.43,0,*62
1546394628.69,18785,0.0,0.0,-11.75,-12.47,-12.47,0,*61
1546394629.94,18786,0.0,0.0,-11.71,-12.43,-12.43,0,*66
1546394631.2,18787,0.0,0.0,-11.73,-12.57,-12.43,0,*60
1546394632.44,18788,0.0,0.0,-11.73,-12.47,-12.47,0,*6A
1546394633.71,18789,0.0,0.0,-11.73,-12.57,-12.43,0,*6E
1546394634.97,18790,0.0,0.0,-11.73,-12.57,-12.47,0,*62
1546394636.21,18791,0.0,0.0,-11.73,-12.47,-12.47,0,*62
1546394637.47,18792,0.0,0.0,-11.73,-12.57,-12.47,0,*60
1546394638.71,18793,0.0,0.0,-11.73,-12.43,-12.47,0,*64
1546394639.95,18794,0.0,0.0,-11.73,-12.47,-12.43,0,*63
1546394641.19,18795,0.0,0.0,-11.73,-12.47,-12.47,0,*66
1546394642.43,18796,0.0,0.0,-11.73,-12.47,-12.43,0,*61
1546394643.67,18797,0.0,0.0,-11.73,-12.43,-12.43,0,*64
1546394644.94,18798,0.0,0.0,-11.71,-12.53,-12.39,0,*65
1546394646.19,18799,0.0,0.0,-11.71,-12.39,-12.39,0,*68
1546394647.43,18800,0.0,0.0,-11.71,-12.43,-12.43,0,*67
1546394648.71,18801,0.0,0.0,-11.71,-12.53,-12.39,0,*6A
1546394649.95,18802,0.0,0.0,-11.73,-12.47,-12.39,0,*6E
1546394651.17,18803,0.0,0.0,-11.75,-12.47,-12.43,0,*64
1546394652.41,18804,0.0,0.0,-11.73,-12.47,-12.43,0,*65
1546394653.67,18805,0.0,0.0,-11.73,-12.61,-12.47,0,*64
1546394654.91,18806,0.0,0.0,-11.75,-12.57,-12.47,0,*64
1546394656.15,18807,0.0,0.0,-11.73,-12.47,-12.47,0,*62
1546394657.39,18808,0.0,0.0,-11.73,-12.47,-12.47,0,*6D
1546394658.63,18809,0.0,0.0,-11.73,-12.47,-12.43,0,*68
1546394659.89,18810,0.0,0.0,-11.73,-12.57,-12.47,0,*65
1546394661.13,18811,0.0,0.0,-11.73,-12.43,-12.43,0,*65
1546394662.37,18812,0.0,0.0,-11.73,-12.47,-12.43,0,*62
1546394663.61,18813,0.0,0.0,-11.73,-12.47,-12.43,0,*63
1546394664.82,18814,0.0,0.0,-11.75,-12.43,-12.43,0,*66
1546394666.06,18815,0.0,0.0,-11.73,-12.47,-12.47,0,*61
1546394667.3,18816,0.0,0.0,-11.73,-12.47,-12.47,0,*62
1546394668.56,18817,0.0,0.0,-11.73,-12.47,-12.57,0,*62
1546394669.83,18818,0.0,0.0,-11.73,-12.47,-12.57,0,*6D
1546394671.09,18819,0.0,0.0,-11.73,-12.57,-12.43,0,*68
1546394672.36,18820,0.0,0.0,-11.73,-12.57,-12.47,0,*66
1546394673.62,18821,0.0,0.0,-11.73,-12.57,-12.47,0,*67
1546394674.88,18822,0.0,0.0,-11.73,-12.57,-12.47,0,*64
1546394676.1,18823,0.0,0.0,-11.75,-12.47,-12.47,0,*62
1546394677.34,18824,0.0,0.0,-11.73,-12.43,-12.47,0,*67
1546394678.58,18825,0.0,0.0,-11.73,-12.47,-12.47,0,*62
1546394679.82,18826,0.0,0.0,-11.73,-12.47,-12.47,0,*61
1546394681.08,18827,0.0,0.0,-11.73,-12.57,-12.47,0,*61
1546394682.35,18828,0.0,0.0,-11.73,-12.57,-12.47,0,*6E
1546394683.59,18829,0.0,0.0,-11.73,-12.47,-12.43,0,*6A
1546394684.8,18830,0.0,0.0,-11.75,-12.47,-12.47,0,*60
1546394686.04,18831,0.0,0.0,-11.73,-12.47,-12.47,0,*67
1546394687.28,18832,0.0,0.0,-11.73,-12.47,-12.43,0,*60
1546394688.5,18833,0.0,0.0,-11.75,-12.47,-12.47,0,*63
1546394689.74,18834,0.0,0.0,-11.73,-12.47,-12.47,0,*62
1546394690.98,18835,0.0,0.0,-11.75,-12.57,-12.47,0,*64
1546394692.24,18836,0.0,0.0,-11.73,-12.61,-12.43,0,*60
1546394693.5,18837,0.0,0.0,-11.73,-12.57,-12.43,0,*64
1546394694.74,18838,0.0,0.0,-11.73,-12.47,-12.43,0,*6A
1546394695.96,18839,0.0,0.0,-11.75,-12.47,-12.43,0,*6D
1546394697.22,18840,0.0,0.0,-11.73,-12.57,-12.47,0,*60
1546394698.49,18841,0.0,0.0,-11.73,-12.57,-12.43,0,*65
1546394699.73,18842,0.0,0.0,-11.73,-12.47,-12.47,0,*63
1546394700.95,18843,0.0,0.0,-11.75,-12.47,-12.47,0,*64
1546394702.18,18844,0.0,0.0,-11.73,-12.47,-12.47,0,*65
1546394703.4,18845,0.0,0.0,-11.75,-12.47,-12.43,0,*66
1546394704.64,18846,0.0,0.0,-11.73,-12.43,-12.47,0,*63
1546394705.93,18847,0.0,0.0,-11.73,-12.57,-12.57,0,*66
1546394707.17,18848,0.0,0.0,-11.75,-12.57,-12.47,0,*6E
1546394708.38,18849,0.0,0.0,-11.75,-12.47,-12.47,0,*6E
1546394709.6,18850,0.0,0.0,-11.75,-12.47,-12.47,0,*66
1546394710.84,18851,0.0,0.0,-11.73,-12.43,-12.47,0,*65
1546394712.08,18852,0.0,0.0,-11.73,-12.47,-12.47,0,*62
1546394713.34,18853,0.0,0.0,-11.73,-12.47,-12.57,0,*62
1546394714.61,18854,0.0,0.0,-11.73,-12.57,-12.47,0,*65
1546394715.82,18855,0.0,0.0,-11.75,-12.47,-12.43,0,*67
1546394717.06,18856,0.0,0.0,-11.73,-12.47,-12.47,0,*66
1546394718.3,18857,0.0,0.0,-11.73,-12.47,-12.47,0,*67
1546394719.54,18858,0.0,0.0,-11.73,-12.47,-12.47,0,*68
1546394720.76,18859,0.0,0.0,-11.75,-12.47,-12.47,0,*6F
1546394721.97,18860,0.0,0.0,-11.75,-12.47,-12.47,0,*65
1546394723.19,18861,0.0,0.0,-11.75,-12.47,-12.47,0,*64
1546394724.41,18862,0.0,0.0,-11.75,-12.47,-12.47,0,*67
1546394725.65,18863,0.0,0.0,-11.73,-12.47,-12.43,0,*64
1546394726.86,18864,0.0,0.0,-11.75,-12.47,-12.47,0,*61
1546394728.1,18865,0.0,0.0,-11.73,-12.47,-12.43,0,*62
1546394729.32,18866,0.0,0.0,-11.75,-12.47,-12.47,0,*63
1546394730.56,18867,0.0,0.0,-11.73,-12.47,-12.47,0,*64
1546394731.8,18868,0.0,0.0,-11.75,-12.57,-12.47,0,*6C
1546394733.04,18869,0.0,0.0,-11.75,-12.57,-12.47,0,*6D
1546394734.28,18870,0.0,0.0,-11.75,-12.57,-12.47,0,*65
1546394735.52,18871,0.0,0.0,-11.75,-12.57,-12.43,0,*60
1546394736.74,18872,0.0,0.0,-11.75,-12.47,-12.47,0,*66
1546394738.0,18873,0.0,0.0,-11.73,-12.57,-12.47,0,*60
1546394739.24,18874,0.0,0.0,-11.75,-12.57,-12.43,0,*65
1546394740.49,18875,0.0,0.0,-11.73,-12.47,-12.43,0,*63
1546394741.7,18876,0.0,0.0,-11.75,-12.47,-12.47,0,*62
1546394742.92,18877,0.0,0.0,-11.75,-12.47,-12.47,0,*63
1546394744.13,18878,0.0,0.0,-11.75,-12.47,-12.43,0,*68
1546394745.37,18879,0.0,0.0,-11.73,-12.47,-12.47,0,*6B
1546394746.61,18880,0.0,0.0,-11.73,-12.47,-12.47,0,*6D
1546394747.83,18881,0.0,0.0,-11.75,-12.43,-12.47,0,*6E
1546394749.04,18882,0.0,0.0,-11.75,-12.47,-12.47,0,*69
1546394750.28,18883,0.0,0.0,-11.75,-12.57,-12.47,0,*69
1546394751.53,18884,0.0,0.0,-11.75,-12.57,-12.47,0,*6E
1546394752.77,18885,0.0,0.0,-11.75,-12.57,-12.47,0,*6F
1546394754.01,18886,0.0,0.0,-11.75,-12.57,-12.47,0,*6C
1546394755.25,18887,0.0,0.0,-11.75,-12.57,-12.47,0,*6D
1546394756.51,18888,0.0,0.0,-11.73,-12.57,-12.47,0,*64
1546394757.75,18889,0.0,0.0,-11.75,-12.57,-12.47,0,*63
1546394758.99,18890,0.0,0.0,-11.75,-12.43,-12.57,0,*6F
1546394760.21,18891,0.0,0.0,-11.75,-12.47,-12.47,0,*6B
1546394761.43,18892,0.0,0.0,-11.75,-12.47,-12.47,0,*68
1546394762.67,18893,0.0,0.0,-11.75,-12.57,-12.47,0,*68
1546394763.88,18894,0.0,0.0,-11.75,-12.47,-12.43,0,*6A
1546394765.1,18895,0.0,0.0,-11.75,-12.43,-12.43,0,*6F
1546394766.33,18896,0.0,0.0,-11.75,-12.61,-12.43,0,*6C
1546394767.58,18897,0.0,0.0,-11.75,-12.57,-12.47,0,*6C
1546394768.81,18898,0.0,0.0,-11.73,-12.47,-12.47,0,*64
1546394770.06,18899,0.0,0.0,-11.73,-12.47,-12.47,0,*65
1546394771.29,18900,0.0,0.0,-11.73,-12.47,-12.47,0,*64
1546394772.56,18901,0.0,0.0,-11.75,-12.57,-12.57,0,*63
1546394773.78,18902,0.0,0.0,-11.75,-12.47,-12.43,0,*64
1546394775.02,18903,0.0,0.0,-11.75,-12.57,-12.47,0,*60
1546394776.28,18904,0.0,0.0,-11.73,-12.57,-12.47,0,*61
1546394777.5,18905,0.0,0.0,-11.75,-12.47,-12.43,0,*63
1546394778.71,18906,0.0,0.0,-11.75,-12.47,-12.47,0,*64
1546394779.93,18907,0.0,0.0,-11.75,-12.47,-12.43,0,*61
1546394781.19,18908,0.0,0.0,-11.73,-12.57,-12.47,0,*6D
1546394782.43,18909,0.0,0.0,-11.73,-12.47,-12.47,0,*6D
1546394783.68,18910,0.0,0.0,-11.75,-12.57,-12.47,0,*62
1546394784.92,18911,0.0,0.0,-11.75,-12.57,-12.47,0,*63
1546394786.16,18912,0.0,0.0,-11.75,-12.57,-12.43,0,*64
1546394787.4,18913,0.0,0.0,-11.75,-12.57,-12.47,0,*61
1546394788.64,18914,0.0,0.0,-11.75,-12.57,-12.47,0,*66
1546394789.88,18915,0.0,0.0,-11.75,-12.43,-12.57,0,*63
1546394791.09,18916,0.0,0.0,-11.75,-12.47,-12.47,0,*65
1546394792.31,18917,0.0,0.0,-11.75,-12.43,-12.43,0,*64
1546394793.52,18918,0.0,0.0,-11.75,-12.47,-12.47,0,*6B
1546394794.74,18919,0.0,0.0,-11.75,-12.47,-12.47,0,*6A
1546394795.98,18920,0.0,0.0,-11.75,-12.47,-12.57,0,*61
1546394797.22,18921,0.0,0.0,-11.75,-12.57,-12.47,0,*60
1546394798.44,18922,0.0,0.0,-11.75,-12.47,-12.47,0,*62
1546394799.65,18923,0.0,0.0,-11.75,-12.47,-12.43,0,*67
1546394800.9,18924,0.0,0.0,-11.75,-12.57,-12.43,0,*61
1546394802.11,18925,0.0,0.0,-11.75,-12.47,-12.43,0,*61
1546394803.33,18926,0.0,0.0,-11.75,-12.47,-12.47,0,*66
1546394804.54,18927,0.0,0.0,-11.75,-12.47,-12.47,0,*67
1546394805.76,18928,0.0,0.0,-11.75,-12.43,-12.47,0,*6C
1546394806.98,18929,0.0,0.0,-11.75,-12.47,-12.47,0,*69
1546394808.22,18930,0.0,0.0,-11.75,-12.57,-12.43,0,*64
1546394809.46,18931,0.0,0.0,-11.75,-12.57,-12.47,0,*61
1546394810.7,18932,0.0,0.0,-11.75,-12.57,-12.47,0,*62
1546394811.92,18933,0.0,0.0,-11.75,-12.47,-12.47,0,*62
1546394813.15,18934,0.0,0.0,-11.75,-12.43,-12.57,0,*60
1546394814.37,18935,0.0,0.0,-11.75,-12.47,-12.47,0,*64
1546394815.59,18936,0.0,0.0,-11.75,-12.47,-12.47,0,*67
1546394816.8,18937,0.0,0.0,-11.75,-12.47,-12.47,0,*66
1546394818.02,18938,0.0,0.0,-11.75,-12.47,-12.43,0,*6D
1546394819.23,18939,0.0,0.0,-11.75,-12.47,-12.43,0,*6C
1546394820.48,18940,0.0,0.0,-11.79,-12.53,-12.47,0,*6F
1546394821.76,18941,0.0,0.0,-11.79,-12.53,-12.53,0,*6B
1546394823.03,18942,0.0,0.0,-11.79,-12.53,-12.53,0,*68
1546394824.27,18943,0.0,0.0,-11.75,-12.47,-12.57,0,*64
1546394825.54,18944,0.0,0.0,-11.79,-12.61,-12.61,0,*6E
1546394826.81,18945,0.0,0.0,-11.79,-12.53,-12.53,0,*6F
1546394828.06,18946,0.0,0.0,-11.79,-12.53,-12.47,0,*69
1546394829.28,18947,0.0,0.0,-11.75,-12.47,-12.47,0,*61
1546394830.49,18948,0.0,0.0,-11.75,-12.47,-12.43,0,*6A
1546394831.74,18949,0.0,0.0,-11.79,-12.53,-12.47,0,*66
1546394832.98,18950,0.0,0.0,-11.79,-12.61,-12.47,0,*6F
1546394834.26,18951,0.0,0.0,-11.79,-12.53,-12.53,0,*6A
1546394835.48,18952,0.0,0.0,-11.79,-12.47,-12.47,0,*69
1546394836.74,18953,0.0,0.0,-11.79,-12.61,-12.53,0,*69
1546394838.04,18954,0.0,0.0,-11.81,-12.61,-12.53,0,*69
1546394839.31,18955,0.0,0.0,-11.79,-12.53,-12.53,0,*6E
1546394840.56,18956,0.0,0.0,-11.79,-12.47,-12.53,0,*68
1546394841.78,18957,0.0,0.0,-11.75,-12.47,-12.47,0,*60
1546394842.99,18958,0.0,0.0,-11.75,-12.47,-12.47,0,*6F
1546394844.21,18959,0.0,0.0,-11.75,-12.47,-12.43,0,*6A
1546394845.43,18960,0.0,0.0,-11.75,-12.47,-12.47,0,*64
1546394846.64,18961,0.0,0.0,-11.75,-12.47,-12.47,0,*65
1546394847.86,18962,0.0,0.0,-11.75,-12.47,-12.47,0,*66
1546394849.1,18963,0.0,0.0,-11.79,-12.61,-12.47,0,*6F
1546394850.34,18964,0.0,0.0,-11.79,-12.61,-12.47,0,*68
1546394851.61,18965,0.0,0.0,-11.79,-12.61,-12.53,0,*6C
1546394852.88,18966,0.0,0.0,-11.79,-12.61,-12.53,0,*6F
1546394854.15,18967,0.0,0.0,-11.79,-12.53,-12.61,0,*6E
1546394855.42,18968,0.0,0.0,-11.79,-12.53,-12.53,0,*60
1546394856.67,18969,0.0,0.0,-11.81,-12.47,-12.47,0,*66
1546394857.94,18970,0.0,0.0,-11.79,-12.53,-12.53,0,*69
1546394859.21,18971,0.0,0.0,-11.79,-12.61,-12.53,0,*69
1546394860.49,18972,0.0,0.0,-11.81,-12.53,-12.47,0,*69
1546394861.76,18973,0.0,0.0,-11.79,-12.53,-12.53,0,*6A
1546394863.01,18974,0.0,0.0,-11.79,-12.47,-12.53,0,*68
1546394864.28,18975,0.0,0.0,-11.79,-12.53,-12.53,0,*6C
1546394865.56,18976,0.0,0.0,-11.79,-12.53,-12.53,0,*6F
1546394866.8,18977,0.0,0.0,-11.79,-12.53,-12.47,0,*6B
1546394868.05,18978,0.0,0.0,-11.79,-12.53,-12.47,0,*64
1546394869.3,18979,0.0,0.0,-11.79,-12.53,-12.47,0,*65
1546394870.54,18980,0.0,0.0,-11.79,-12.61,-12.47,0,*62
1546394871.82,18981,0.0,0.0,-11.79,-12.53,-12.53,0,*67
1546394873.09,18982,0.0,0.0,-11.79,-12.53,-12.53,0,*64
1546394874.39,18983,0.0,0.0,-11.81,-12.61,-12.53,0,*63
1546394875.69,18984,0.0,0.0,-11.81,-12.53,-12.53,0,*65
1546394876.96,18985,0.0,0.0,-11.79,-12.53,-12.61,0,*62
1546394878.23,18986,0.0,0.0,-11.79,-12.53,-12.53,0,*60
1546394879.51,18987,0.0,0.0,-11.79,-12.53,-12.53,0,*61
1546394880.78,18988,0.0,0.0,-11.81,-12.53,-12.47,0,*6C
1546394882.06,18989,0.0,0.0,-11.79,-12.53,-12.53,0,*6F
1546394883.3,18990,0.0,0.0,-11.79,-12.53,-12.47,0,*62
1546394884.58,18991,0.0,0.0,-11.79,-12.53,-12.53,0,*66
1546394885.85,18992,0.0,0.0,-11.79,-12.53,-12.53,0,*65
1546394887.1,18993,0.0,0.0,-11.79,-12.53,-12.47,0,*61
1546394888.4,18994,0.0,0.0,-11.81,-12.53,-12.53,0,*64
1546394889.68,18995,0.0,0.0,-11.79,-12.53,-12.53,0,*62
1546394890.95,18996,0.0,0.0,-11.79,-12.53,-12.53,0,*61
1546394892.23,18997,0.0,0.0,-11.79,-12.53,-12.53,0,*60
1546394893.5,18998,0.0,0.0,-11.81,-12.47,-12.53,0,*6D
1546394894.77,18999,0.0,0.0,-11.79,-12.53,-12.53,0,*6E
1546394896.08,19000,0.0,0.0,-11.81,-12.53,-12.53,0,*61
1546394897.35,19001,0.0,0.0,-11.79,-12.53,-12.53,0,*67
1546394898.62,19002,0.0,0.0,-11.79,-12.53,-12.53,0,*64
1546394899.9,19003,0.0,0.0,-11.79,-12.53,-12.53,0,*65
1546394901.17,19004,0.0,0.0,-11.79,-12.53,-12.53,0,*62
1546394902.47,19005,0.0,0.0,-11.81,-12.53,-12.53,0,*64
1546394903.72,19006,0.0,0.0,-11.79,-12.53,-12.47,0,*65
1546394905.0,19007,0.0,0.0,-11.79,-12.53,-12.53,0,*61
1546394906.3,19008,0.0,0.0,-11.81,-12.53,-12.53,0,*69
1546394907.54,19009,0.0,0.0,-11.79,-12.61,-12.47,0,*6B
1546394908.83,19010,0.0,0.0,-11.81,-12.61,-12.53,0,*61
1546394910.05,19011,0.0,0.0,-11.79,-12.47,-12.47,0,*66
1546394911.29,19012,0.0,0.0,-11.79,-12.61,-12.47,0,*61
1546394912.54,19013,0.0,0.0,-11.79,-12.61,-12.47,0,*60
1546394913.84,19014,0.0,0.0,-11.81,-12.53,-12.53,0,*64
1546394915.14,19015,0.0,0.0,-11.81,-12.53,-12.53,0,*65
1546394916.43,19016,0.0,0.0,-11.81,-12.61,-12.53,0,*67
1546394917.73,19017,0.0,0.0,-11.81,-12.53,-12.53,0,*67
1546394919.01,19018,0.0,0.0,-11.79,-12.53,-12.53,0,*6F
1546394920.28,19019,0.0,0.0,-11.79,-12.53,-12.53,0,*6E
1546394921.58,19020,0.0,0.0,-11.81,-12.53,-12.53,0,*63
1546394922.86,19021,0.0,0.0,-11.81,-12.47,-12.53,0,*67
1546394924.13,19022,0.0,0.0,-11.81,-12.53,-12.47,0,*64
1546394925.4,19023,0.0,0.0,-11.81,-12.53,-12.47,0,*65
1546394926.7,19024,0.0,0.0,-11.81,-12.61,-12.53,0,*66
1546394927.99,19025,0.0,0.0,-11.81,-12.61,-12.53,0,*67
1546394929.27,19026,0.0,0.0,-11.79,-12.53,-12.53,0,*62
1546394930.54,19027,0.0,0.0,-11.81,-12.61,-12.47,0,*60
1546394931.84,19028,0.0,0.0,-11.81,-12.53,-12.53,0,*6B
1546394933.11,19029,0.0,0.0,-11.81,-12.53,-12.47,0,*6F
1546394934.38,19030,0.0,0.0,-11.81,-12.61,-12.47,0,*66
1546394935.67,19031,0.0,0.0,-11.81,-12.61,-12.53,0,*62
1546394936.94,19032,0.0,0.0,-11.79,-12.61,-12.53,0,*66
1546394938.24,19033,0.0,0.0,-11.81,-12.53,-12.53,0,*61
1546394939.49,19034,0.0,0.0,-11.79,-12.53,-12.47,0,*64
1546394940.79,19035,0.0,0.0,-11.81,-12.53,-12.53,0,*67
1546394942.06,19036,0.0,0.0,-11.81,-12.61,-12.47,0,*60
1546394943.33,19037,0.0,0.0,-11.81,-12.53,-12.47,0,*60